Hourly Data Report for August 01, 2021

KITCHENER/WATERLOO
ONTARIO
Current Station Operator: NAVCAN

43°27'39.000" N
80°22'43.000" W
321.60 m
6144239
71368
YKF

Download Data

Hourly Data (August 2021)
Hourly Data Report for August 1, 2021
TIME
LST
Temp Definition
°C
Dew Point Definition
°C
Rel Hum Definition
%
Precip. Amount Definition
mm

Wind Dir Definition
10's deg

Wind Spd Definition
km/h
Visibility Definition
km
Stn Press Definition
kPa
Hmdx Definition


Wind Chill Definition


Weather Definition


00:00 16.6 15.5 93 0.0 24 9 16.1 97.31     LegendNANA
01:00 16.2 15.3 94 0.0 28 9 16.1 97.27     LegendNANA
02:00 15.3 14.8 97 0.0 30 9 16.1 97.23     LegendNANA
03:00 14.8 14.5 98 0.0 31 9 9.7 97.26     Fog
04:00 14.6 14.1 97 0.0 30 9 9.7 97.25     Fog
05:00 14.4 13.9 97 0.0 31 11 11.3 97.22     LegendNANA
06:00 14.4 13.9 97 0.0 30 8 16.1 97.27     LegendNANA
07:00 14.7 13.9 95 0.0 LegendMM 4 16.1 97.30     LegendNANA
08:00 15.1 14.3 95 0.0   0 16.1 97.31     Rain
09:00 15.0 14.6 97 2.8 8 9 8.1 97.27     Rain, Fog
10:00 15.2 14.6 96 1.5 22 9 16.1 97.37     Moderate Rain
11:00 17.0 14.2 83 0.0 28 5 16.1 97.38     LegendNANA
12:00 18.1 14.8 81 0.0 30 13 16.1 97.35     LegendNANA
13:00 19.4 14.5 73 0.0 31 11 16.1 97.34     LegendNANA
14:00 20.5 13.4 63 0.0 32 11 16.1 97.34     LegendNANA
15:00 14.6 12.7 89 3.5 LegendMM 4 11.3 97.43     Thunderstorms,Heavy Rain
16:00 18.7 15.1 79 0.8 35 11 16.1 97.44     LegendNANA
17:00 18.0 13.4 74 0.0 32 21 16.1 97.46     LegendNANA
18:00 18.5 13.8 74 0.0 36 17 16.1 97.52     LegendNANA
19:00 16.7 13.2 80 0.0 36 15 16.1 97.61     LegendNANA
20:00 14.9 12.4 85 0.0 34 13 16.1 97.70     LegendNANA
21:00 13.9 12.5 91 0.0   0 16.1 97.78     LegendNANA
22:00 13.1 12.0 93 0.0 32 13 16.1 97.81     LegendNANA
23:00 12.2 11.6 96 0.0 32 9 16.1 97.84     LegendNANA

Notes on Data Quality.

Legend

  • E = Estimated
  • M = Missing
  • NA = Not Available*
  • [empty] = Indicates an unobserved value
Date modified: